Flag Weather past 2 weeks in Schwedt/Oder, Brandenburg, Germany

Now
39 °F

Fog.


Feels Like: 36 °F
Forecast: 46 / 58 °F
Wind: 5 mph from South

Location: Szczecin Airport

Current Time: Oct 31, 2014 at 6:07:02 AM

Latest Report: Oct 31, 2014 at 5:30 AM


Visibility: 0 mi

Pressure: 30.30 "Hg

Humidity: 100%

Dew point: 39 °F

Location of Schwedt/OderLocation

Historic Weather in Schwedt/Oder — Graph

°F

Schwedt/Oder temperature yesterday

Maximum temperature yesterday: 55 °F (at 1:30 PM)
Minimum temperature yesterday: 36 °F (at 10:30 PM)
Average temperature yesterday: 45 °F

Past Weeks' High & Low Weather Summary

 TemperatureHumidityPressure
High68 °F (Oct 19, 3:30 PM)100% (Oct 16, 6:00 AM)30.33 "Hg (Oct 16, 6:00 AM)
Low34 °F (Oct 25, 7:00 AM)46% (Oct 24, 5:30 PM)29.45 "Hg (Oct 21, 11:30 PM)
Average49 °F91%30.03 "Hg
* Reported Oct 16 6:00 AM — Oct 31 5:00 AM, Schwedt/Oder, Weather by CustomWeather, © 2014

Note: Actual official high and low records may vary slightly from our data, if they occured in-between our weather recording intervals... More about our weather records

Advertising

Schwedt/Oder weather history for previous 24 hours

 ConditionsComfort  
Time TempWeatherWind HumidityBarometerVisibility
5:00 AM
Oct 31
39 °FFog.6 mph100%30.30 "Hg0 mi
4:30 AM39 °FFog.6 mph100%30.30 "Hg0 mi
4:00 AM39 °FFog.6 mph100%30.30 "Hg0 mi
3:30 AM39 °FFog.6 mph100%30.30 "Hg0 mi
3:00 AM39 °FFog.2 mph100%30.30 "Hg0 mi
2:30 AM37 °FFog.No wind100%30.30 "Hg0 mi
2:00 AM37 °FFog.No wind100%30.33 "Hg0 mi
1:30 AM37 °FFog.No wind100%30.30 "Hg0 mi
1:00 AM37 °FFog.1 mph100%30.30 "Hg0 mi
12:30 AM39 °FFog.3 mph100%30.30 "Hg0 mi
12:00 AM37 °FFog.No wind93%30.33 "Hg2 mi
11:30 PM
Oct 30
36 °FFog.No wind100%30.30 "Hg2 mi
11:00 PM37 °FFog.No wind100%30.30 "Hg2 mi
10:30 PM36 °FFog.No wind100%30.30 "Hg2 mi
10:00 PM37 °FFog.No wind100%30.33 "Hg1 mi
9:30 PM37 °FFog.No wind100%30.30 "Hg2 mi
9:00 PM39 °FFog.No wind100%30.30 "Hg4 mi
8:30 PM39 °FClear.No wind100%30.30 "Hg4 mi
8:00 PM41 °FFog.No wind100%30.30 "Hg3 mi
7:30 PM43 °FPassing clouds.No wind100%30.30 "Hg5 mi
7:00 PM45 °FPassing clouds.No wind93%30.30 "HgN/A
6:30 PM45 °FClear.No wind93%30.30 "Hg10 mi
6:00 PM45 °FClear.No wind93%30.30 "Hg10 mi
5:30 PM45 °FClear.No wind93%30.27 "Hg10 mi
5:00 PM48 °FPassing clouds.No wind87%30.27 "HgN/A
4:30 PM50 °FPartly sunny.No wind82%30.27 "HgN/A
4:00 PM50 °FScattered clouds.No wind88%30.27 "HgN/A
3:30 PM52 °FScattered clouds.2 mph77%30.27 "HgN/A
3:00 PM52 °FScattered clouds.No wind72%30.27 "HgN/A
2:30 PM54 °FScattered clouds.No wind72%30.27 "HgN/A
2:00 PM55 °FPassing clouds.No wind67%30.24 "HgN/A
1:30 PM55 °FPassing clouds.No wind72%30.24 "HgN/A
1:00 PM54 °FPassing clouds.3 mph77%30.24 "HgN/A
12:30 PM52 °FPassing clouds.1 mph88%30.24 "HgN/A
12:00 PM48 °FPassing clouds.3 mph100%30.24 "Hg5 mi
11:30 AM46 °FFog.2 mph100%30.24 "Hg3 mi
11:00 AM46 °FFog.2 mph100%30.24 "Hg1 mi
10:30 AM46 °FFog.No wind100%30.24 "Hg1 mi
10:00 AM45 °FFog.No wind100%30.24 "Hg1 mi
9:30 AM45 °FFog.2 mph100%30.24 "Hg0 mi
9:00 AM45 °FFog.2 mph100%30.21 "Hg0 mi
8:30 AM45 °FFog.2 mph100%30.21 "Hg0 mi
8:00 AM45 °FFog.3 mph100%30.21 "Hg0 mi
7:30 AM45 °FFog.3 mph100%30.18 "Hg0 mi
7:00 AM45 °FFog.3 mph100%30.18 "Hg0 mi
6:30 AM45 °FFog.3 mph100%30.18 "Hg0 mi
6:00 AM45 °FFog.3 mph100%30.15 "Hg0 mi
Weather by CustomWeather, © 2014

See weather overviewHow to use our weather pages